This is the latest recevied weather packets stored in our database for station/object SQ3VAS-10. If no packets are shown the sender has not sent any weather packets the latest 10 day(s).
| Time | Temp. | Humidity | Pressure | Rain* | Wind** | Luminosity | Snow |
|---|---|---|---|---|---|---|---|
| 1777876245 | 20° C | 57% | 1011.8 hPa | - | - | - | - |
| 1777875672 | 20° C | 58% | 1011.7 hPa | - | - | - | - |
| 1777875099 | 18.89° C | 60% | 1011.7 hPa | - | - | - | - |
| 1777874526 | 18.33° C | 62% | 1011.5 hPa | - | - | - | - |
| 1777873952 | 18.33° C | 60% | 1011.4 hPa | - | - | - | - |
| 1777873379 | 18.89° C | 60% | 1011 hPa | - | - | - | - |
| 1777872807 | 18.33° C | 59% | 1011.3 hPa | - | - | - | - |
| 1777872235 | 18.33° C | 58% | 1011.5 hPa | - | - | - | - |
| 1777871662 | 18.89° C | 55% | 1011.3 hPa | - | - | - | - |
| 1777871091 | 18.33° C | 55% | 1011.3 hPa | - | - | - | - |
| 1777870517 | 18.33° C | 55% | 1011.2 hPa | - | - | - | - |
| 1777869945 | 17.78° C | 56% | 1011.2 hPa | - | - | - | - |
| 1777869372 | 17.78° C | 56% | 1011.2 hPa | - | - | - | - |
| 1777868799 | 17.78° C | 60% | 1011 hPa | - | - | - | - |
| 1777868226 | 17.78° C | 56% | 1011 hPa | - | - | - | - |
| 1777867654 | 17.22° C | 58% | 1011.1 hPa | - | - | - | - |
| 1777867080 | 17.22° C | 58% | 1011.1 hPa | - | - | - | - |
| 1777866507 | 17.22° C | 62% | 1011.1 hPa | - | - | - | - |
| 1777865936 | 16.67° C | 62% | 1011.1 hPa | - | - | - | - |
| 1777865359 | 16.67° C | 63% | 1011 hPa | - | - | - | - |
| 1777864787 | 16.67° C | 62% | 1010.9 hPa | - | - | - | - |
| 1777864214 | 16.67° C | 59% | 1010.7 hPa | - | - | - | - |
| 1777863066 | 16.67° C | 56% | 1010.7 hPa | - | - | - | - |
| 1777862493 | 16.67° C | 61% | 1010.6 hPa | - | - | - | - |
| 1777861921 | 16.67° C | 63% | 1010.6 hPa | - | - | - | - |
* Rain since midnight (hover to see other rain measurements)
** Current wind speed in m/s (hover to see current wind gust speed)